Regional Weather Roundup
Issued by NWS

Home | Current Version | Previous Version | Graphics & Text | Print | Product List | Glossary On
Versions: 1 2 3 4 5 6 7 8 9 10 11 12 13 14 15 16 17 18 19 20 21 22 23 24 25 26 27 28 29 30 31 32 33 34 35 36 37 38 39 40 41 42 43 44 45 46 47 48 49 50
000
ASUS45 KCYS 281810
RWRWY

WYOMING REGIONAL WEATHER ROUNDUP
NATIONAL WEATHER SERVICE CHEYENNE WY
1200 PM MDT THU AUG 28 2014

NOTE:  "FAIR" INDICATES FEW OR NO CLOUDS BELOW 12,000 FEET
WITH NO SIGNIFICANT WEATHER AND/OR OBSTRUCTIONS TO VISIBILITY.

WYZ001-281900-
YELLOWSTONE NATIONAL PARK

CITY           SKY/WX    TMP DP  RH WIND       PRES   REMARKS
LK YELLOWSTONE   N/A     60  46  59 E7        30.38F
6HR MIN TEMP:  35; 6HR MAX TEMP:  60;

W YELLOWSTONE  NOT AVBL

$$
WYZ002>013-054>058-071-098>099-281900-
NORTHERN WYOMING

CITY           SKY/WX    TMP DP  RH WIND       PRES   REMARKS
JACKSON        SUNNY     66  43  42 S6        30.31F
CODY           MOSUNNY   77  41  27 N5        30.13F
GREYBULL       SUNNY     76  52  43 SE8       30.08F
6HR MIN TEMP:  52; 6HR MAX TEMP:  76;

WORLAND        SUNNY     75  48  38 VRB5      30.10F
6HR MIN TEMP:  51; 6HR MAX TEMP:  75;

SHERIDAN       SUNNY     83  41  22 VRB7G18   30.05F
6HR MIN TEMP:  50; 6HR MAX TEMP:  84;

BUFFALO        SUNNY     77  41  27 N21G26    30.11F
6HR MIN TEMP:  57; 6HR MAX TEMP:  78;

GILLETTE       SUNNY     79  50  36 N12       30.05F
6HR MIN TEMP:  58; 6HR MAX TEMP:  79;

HULETT         FAIR      77  52  41 MISG      30.05
NEWCASTLE      FAIR      73  43  33 MISG      30.05

$$
WYZ014>020-022>026-101>103-281900-
CENTRAL WYOMING

CITY           SKY/WX    TMP DP  RH WIND       PRES   REMARKS
BIG PINEY      MOSUNNY   72  38  29 NW16      30.32F
6HR MIN TEMP:  38; 6HR MAX TEMP:  72;

PINEDALE       CLEAR     68  36  30 W15G21    30.32F
DUBOIS         FAIR      70  32  24 N13G23    30.29F
LANDER         SUNNY     76  42  29 VRB3      30.19F
6HR MIN TEMP:  48; 6HR MAX TEMP:  76;

RIVERTON       SUNNY     72  51  47 E7        30.19F
6HR MIN TEMP:  51; 6HR MAX TEMP:  72;

CASPER         MOSUNNY   76  45  33 N10       30.15F
6HR MIN TEMP:  56; 6HR MAX TEMP:  77;

DOUGLAS        PTSUNNY   74  54  49 NW10      30.12F
6HR MIN TEMP:  58; 6HR MAX TEMP:  74;


$$
WYZ021-027>030-104>119-281900-
SOUTHERN WYOMING

CITY           SKY/WX    TMP DP  RH WIND       PRES   REMARKS
EVANSTON       MOSUNNY   66  50  56 SW8       30.37S
6HR MIN TEMP:  46; 6HR MAX TEMP:  66;

KEMMERER       PTCLDY    64  46  52 SW18      30.36F
FORT BRIDGER   FAIR      68  50  51 W10G16    30.38S
ROCK SPRINGS   SUNNY     64  49  57 W8        30.32F
6HR MIN TEMP:  47; 6HR MAX TEMP:  64;

DIXON          MOCLDY    60  51  73 W5        30.34S
RAWLINS        MOSUNNY   67  48  50 W16       30.27F
6HR MIN TEMP:  51; 6HR MAX TEMP:  67; 6HR PCP: TRACE;

SARATOGA       MOCLDY    59  50  72 SE3       30.31F
LARAMIE        RAIN      49  47  93 SW7       30.29S FOG
6HR MIN TEMP:  44; 6HR MAX TEMP:  49; 6HR PCP:  0.43;

CHEYENNE       CLOUDY    58  49  72 NW17G24   30.20R
6HR MIN TEMP:  51; 6HR MAX TEMP:  61;

TORRINGTON     LGT RAIN  59  58  96 NW8       30.10S
6HR MIN TEMP:  58; 6HR MAX TEMP:  61; 6HR PCP:  0.17;

PINE BLUFFS    RAIN      55  54  94 N18G24    30.15S

$$



USA.gov is the U.S. government's official web portal to all federal, state and local government web resources and services.